W6SNO-1 Weather Reports


time (UTC)temp
C
wind
direction
speed
KPH
gust
KPH
rain 1hr
cm
rain 24hr
cm
rain mn
cm
humidity
%
barometer
mb
20260507030338 17 301 4.8 8.0 0.00 0.00 0.00 75 1018.4
20260507025834 17 301 4.8 8.0 0.00 0.00 0.00 75 1018.5
20260507025332 17 13 4.8 4.8 0.00 0.00 0.00 74 1018.4
20260507024829 18 351 1.6 1.6 0.00 0.00 0.00 72 1018.5
20260507024326 18 352 1.6 1.6 0.00 0.00 0.00 71 1018.3
20260507023822 18 0 1.6 1.6 0.00 0.00 0.00 70 1018.2
20260507023319 18 359 4.8 4.8 0.00 0.00 0.00 69 1018.3
20260507022816 18 318 4.8 4.8 0.00 0.00 0.00 68 1018.2
20260507022313 19 2 3.2 4.8 0.00 0.00 0.00 67 1018.2
20260507021809 20 1 3.2 3.2 0.00 0.00 0.00 65 1018.0
20260507021305 20 13 3.2 4.8 0.00 0.00 0.00 64 1018.0
20260507020803 20 342 1.6 1.6 0.00 0.00 0.00 63 1018.1
20260507020259 20 313 4.8 4.8 0.00 0.00 0.00 63 1018.0
20260507015757 20 313 4.8 4.8 0.00 0.00 0.00 63 1018.0
20260507015254 20 335 1.6 1.6 0.00 0.00 0.00 61 1017.8
20260507014751 20 335 1.6 1.6 0.00 0.00 0.00 61 1018.1
20260507014247 20 8 6.4 8.0 0.00 0.00 0.00 61 1018.0
20260507013743 21 29 4.8 4.8 0.00 0.00 0.00 61 1018.0
20260507013241 21 328 4.8 8.0 0.00 0.00 0.00 60 1018.2
20260507012738 21 338 1.6 3.2 0.00 0.00 0.00 60 1017.8
20260507012233 21 7 4.8 4.8 0.00 0.00 0.00 60 1017.9
20260507011732 21 355 3.2 4.8 0.00 0.00 0.00 60 1018.0
20260507011228 21 331 1.6 3.2 0.00 0.00 0.00 59 1017.8
20260507010727 21 345 1.6 3.2 0.00 0.00 0.00 59 1018.0
20260507010223 21 354 1.6 3.2 0.00 0.00 0.00 59 1017.9
20260507005721 21 314 3.2 4.8 0.00 0.00 0.00 59 1017.7
20260507005217 22 354 4.8 8.0 0.00 0.00 0.00 57 1017.9
20260507004714 21 336 3.2 4.8 0.00 0.00 0.00 58 1017.7
20260507004212 -17 0.0 0.0 0.00 0.00 0.00 1017.8
20260507003708 22 329 3.2 3.2 0.00 0.00 0.00 55 1017.8
20260507003203 22 329 3.2 3.2 0.00 0.00 0.00 55 1017.6
20260507002659 -17 0.0 0.0 0.00 0.00 0.00 1017.7
20260507002155 22 306 4.8 8.0 0.00 0.00 0.00 54 1017.7
20260507001652 22 306 4.8 8.0 0.00 0.00 0.00 54 1017.8
20260507001150 -17 0.0 0.0 0.00 0.00 0.00 1017.6
20260507000646 -17 0.0 0.0 0.00 0.00 0.00 1017.7
20260507000141 -17 0.0 0.0 0.00 0.00 0.00 1017.5
20260506235639 23 30 6.4 8.0 0.00 0.00 0.00 54 1017.7
20260506235139 23 30 6.4 8.0 0.00 0.00 0.00 54 1017.5
20260506234637 -17 0.0 0.0 0.00 0.00 0.00 1017.7
20260506234134 -17 0.0 0.0 0.00 0.00 0.00 1017.5
20260506233631 23 338 3.2 3.2 0.00 0.00 0.00 55 1017.6
20260506233128 23 338 3.2 3.2 0.00 0.00 0.00 55 1017.6
20260506232624 -17 0.0 0.0 0.00 0.00 0.00 1017.6
20260506232119 -17 0.0 0.0 0.00 0.00 0.00 1017.6
20260506231617 23 321 4.8 4.8 0.00 0.00 0.00 52 1017.6
20260506231115 23 321 4.8 4.8 0.00 0.00 0.00 52 1017.7
20260506230611 -17 0.0 0.0 0.00 0.00 0.00 1017.6
20260506230109 -17 0.0 0.0 0.00 0.00 0.00 1017.9
20260506225605 -17 0.0 0.0 0.00 0.00 0.00 1017.8
20260506225101 -17 0.0 0.0 0.00 0.00 0.00 1017.8
20260506224558 -17 0.0 0.0 0.00 0.00 0.00 1017.7
20260506224055 -17 0.0 0.0 0.00 0.00 0.00 1017.7
20260506223551 -17 0.0 0.0 0.00 0.00 0.00 1017.8
20260506223047 23 349 3.2 3.2 0.00 0.00 0.00 51 1018.1
20260506222544 23 349 3.2 3.2 0.00 0.00 0.00 51 1018.2
20260506222040 22 28 4.8 4.8 0.00 0.00 0.00 53 1017.9
20260506221538 -17 0.0 0.0 0.00 0.00 0.00 1018.2
20260506221036 -17 0.0 0.0 0.00 0.00 0.00 1018.2
20260506220532 -17 0.0 0.0 0.00 0.00 0.00 1018.2
20260506220027 -17 0.0 0.0 0.00 0.00 0.00 1018.6
20260506215525 -17 0.0 0.0 0.00 0.00 0.00 1018.5
20260506215020 -17 0.0 0.0 0.00 0.00 0.00 1018.5
20260506214518 -17 0.0 0.0 0.00 0.00 0.00 1018.6
20260506214015 23 2 6.4 8.0 0.00 0.00 0.00 52 1018.6
20260506213513 23 2 6.4 8.0 0.00 0.00 0.00 52 1018.6
20260506213009 -17 0.0 0.0 0.00 0.00 0.00 1018.8
20260506212506 -17 0.0 0.0 0.00 0.00 0.00 1018.9
20260506212001 -17 0.0 0.0 0.00 0.00 0.00 1019.1
20260506211457 22 16 0.0 1.6 0.00 0.00 0.00 56 1019.0
20260506210954 22 16 0.0 1.6 0.00 0.00 0.00 56 1018.7
20260506210450 -17 0.0 0.0 0.00 0.00 0.00 1018.9
20260506205948 -17 0.0 0.0 0.00 0.00 0.00 1019.4
20260506205444 21 4 4.8 4.8 0.00 0.00 0.00 57 1019.1
20260506204940 21 4 4.8 4.8 0.00 0.00 0.00 57 1019.3
20260506204438 -17 0.0 0.0 0.00 0.00 0.00 1019.3
20260506203935 -17 0.0 0.0 0.00 0.00 0.00 1019.2
20260506203432 -17 0.0 0.0 0.00 0.00 0.00 1019.3
20260506202929 -17 0.0 0.0 0.00 0.00 0.00 1019.3
20260506202426 -17 0.0 0.0 0.00 0.00 0.00 1019.4
20260506201922 -17 0.0 0.0 0.00 0.00 0.00 1019.4
20260506201420 -17 0.0 0.0 0.00 0.00 0.00 1019.6
20260506200917 -17 0.0 0.0 0.00 0.00 0.00 1019.6
20260506200413 -17 0.0 0.0 0.00 0.00 0.00 1019.5
20260506195909 -17 0.0 0.0 0.00 0.00 0.00 1019.4
20260506195407 -17 0.0 0.0 0.00 0.00 0.00 1019.5
20260506194903 -17 0.0 0.0 0.00 0.00 0.00 1019.8
20260506194400 20 356 4.8 4.8 0.00 0.00 0.00 61 1019.9
20260506193857 20 356 4.8 4.8 0.00 0.00 0.00 61 1019.9
20260506193354 20 336 3.2 8.0 0.00 0.00 0.00 62 1019.8
20260506192850 20 336 3.2 8.0 0.00 0.00 0.00 62 1020.0
20260506192347 20 26 4.8 4.8 0.00 0.00 0.00 62 1019.9
20260506191844 19 2 3.2 3.2 0.00 0.00 0.00 63 1020.1
20260506191340 -17 0.0 0.0 0.00 0.00 0.00 1020.0
20260506190838 -17 0.0 0.0 0.00 0.00 0.00 1020.0
20260506190334 -17 0.0 0.0 0.00 0.00 0.00 1020.1
20260506185831 -17 0.0 0.0 0.00 0.00 0.00 1020.0
20260506185328 -17 0.0 0.0 0.00 0.00 0.00 1020.1
20260506184825 -17 0.0 0.0 0.00 0.00 0.00 1020.3
20260506184322 -17 0.0 0.0 0.00 0.00 0.00 1020.2
20260506183820 -17 0.0 0.0 0.00 0.00 0.00 1020.3
20260506183314 18 345 4.8 8.0 0.00 0.00 0.00 67 1020.2
20260506182812 18 345 4.8 8.0 0.00 0.00 0.00 67 1020.3
20260506182309 17 5 1.6 3.2 0.00 0.00 0.00 68 1020.3
20260506181807 -17 0.0 0.0 0.00 0.00 0.00 1020.4
20260506181304 -17 0.0 0.0 0.00 0.00 0.00 1020.4
20260506180802 -17 0.0 0.0 0.00 0.00 0.00 1020.4
20260506180257 -17 0.0 0.0 0.00 0.00 0.00 1020.3
20260506175753 -17 0.0 0.0 0.00 0.00 0.00 1020.5
20260506175251 -17 0.0 0.0 0.00 0.00 0.00 1020.4
20260506174748 -17 0.0 0.0 0.00 0.00 0.00 1020.4
20260506174245 -17 0.0 0.0 0.00 0.00 0.00 1020.4
20260506173743 -17 0.0 0.0 0.00 0.00 0.00 1020.5
20260506173239 -17 0.0 0.0 0.00 0.00 0.00 1020.6
20260506172736 -17 0.0 0.0 0.00 0.00 0.00 1020.5
20260506172233 -17 0.0 0.0 0.00 0.00 0.00 1020.6
20260506171731 -17 0.0 0.0 0.00 0.00 0.00 1020.3
20260506171228 -17 0.0 0.0 0.00 0.00 0.00 1020.8
20260506170725 -17 0.0 0.0 0.00 0.00 0.00 1020.6
20260506170222 -17 0.0 0.0 0.00 0.00 0.00 1020.8
20260506165720 15 0 1.6 1.6 0.00 0.00 0.00 78 1020.7
20260506165217 15 0 1.6 1.6 0.00 0.00 0.00 78 1020.6
20260506164714 -17 0.0 0.0 0.00 0.00 0.00 1020.6
20260506164211 15 349 1.6 1.6 0.00 0.00 0.00 79 1020.7
20260506163707 15 349 1.6 1.6 0.00 0.00 0.00 79 1020.5
20260506163202 -17 0.0 0.0 0.00 0.00 0.00 1020.6
20260506162658 14 254 3.2 3.2 0.00 0.00 0.00 80 1020.8
20260506162156 14 254 3.2 3.2 0.00 0.00 0.00 80 1020.8
20260506161654 -17 0.0 0.0 0.00 0.00 0.00 1021.0
20260506161150 -17 0.0 0.0 0.00 0.00 0.00 1020.6
20260506160648 13 354 0.0 0.0 0.00 0.00 0.00 82 1020.7
20260506160145 13 354 0.0 0.0 0.00 0.00 0.00 82 1020.8
20260506155643 13 350 3.2 3.2 0.00 0.00 0.00 83 1020.8
20260506155140 13 350 3.2 3.2 0.00 0.00 0.00 83 1020.7
20260506153242 13 337 0.0 1.6 0.00 0.00 0.00 84 1020.7
20260506152739 13 348 3.2 4.8 0.00 0.00 0.00 84 1020.6
20260506152236 13 326 0.0 0.0 0.00 0.00 0.00 85 1020.8
20260506151735 13 326 0.0 0.0 0.00 0.00 0.00 85 1020.7
20260506151231 13 341 0.0 0.0 0.00 0.00 0.00 85 1020.7
20260506150727 13 341 0.0 0.0 0.00 0.00 0.00 85 1020.6
20260506150225 13 19 1.6 3.2 0.00 0.00 0.00 85 1020.6
20260506145722 13 354 1.6 1.6 0.00 0.00 0.00 85 1020.7
20260506145218 -17 0.0 0.0 0.00 0.00 0.00 1020.7
20260506144716 -17 0.0 0.0 0.00 0.00 0.00 1020.8
20260506144213 13 0 0.0 1.6 0.00 0.00 0.00 85 1020.8
20260506143710 13 0 0.0 1.6 0.00 0.00 0.00 85 1020.5
20260506143208 13 341 0.0 0.0 0.00 0.00 0.00 86 1020.7
20260506142706 -17 0.0 0.0 0.00 0.00 0.00 1020.7
20260506142204 -17 0.0 0.0 0.00 0.00 0.00 1020.5
20260506141702 -17 0.0 0.0 0.00 0.00 0.00 1020.5
20260506141159 -17 0.0 0.0 0.00 0.00 0.00 1020.5
20260506140657 13 328 1.6 3.2 0.00 0.00 0.00 85 1020.5
20260506140154 13 328 1.6 3.2 0.00 0.00 0.00 85 1020.3
20260506135650 -17 0.0 0.0 0.00 0.00 0.00 1020.3
20260506135147 13 333 0.0 0.0 0.00 0.00 0.00 86 1020.2
20260506134643 13 333 0.0 0.0 0.00 0.00 0.00 86 1020.0
20260506134140 12 333 0.0 0.0 0.00 0.00 0.00 86 1020.0
20260506133637 -17 0.0 0.0 0.00 0.00 0.00 1019.9
20260506133134 -17 0.0 0.0 0.00 0.00 0.00 1019.9
20260506132631 -17 0.0 0.0 0.00 0.00 0.00 1020.1
20260506132128 -17 0.0 0.0 0.00 0.00 0.00 1019.7
20260506131625 -17 0.0 0.0 0.00 0.00 0.00 1019.9
20260506131121 -17 0.0 0.0 0.00 0.00 0.00 1019.6
20260506130619 -17 0.0 0.0 0.00 0.00 0.00 1019.7
20260506130116 -17 0.0 0.0 0.00 0.00 0.00 1019.7
20260506125614 12 2 0.0 1.6 0.00 0.00 0.00 86 1019.6
20260506125112 12 2 0.0 1.6 0.00 0.00 0.00 86 1019.5
20260506124609 13 344 0.0 1.6 0.00 0.00 0.00 86 1019.6
20260506124107 13 344 0.0 1.6 0.00 0.00 0.00 86 1019.6
20260506123604 -17 0.0 0.0 0.00 0.00 0.00 1019.5
20260506123103 -17 0.0 0.0 0.00 0.00 0.00 1019.6
20260506122559 -17 0.0 0.0 0.00 0.00 0.00 1019.4
20260506122057 12 359 0.0 0.0 0.00 0.00 0.00 86 1019.5
20260506121554 12 359 0.0 0.0 0.00 0.00 0.00 86 1019.3
20260506121050 13 357 0.0 0.0 0.00 0.00 0.00 86 1019.4
20260506120549 12 5 1.6 3.2 0.00 0.00 0.00 86 1019.5
20260506120045 12 356 0.0 0.0 0.00 0.00 0.00 86 1019.4
20260506115543 12 356 0.0 0.0 0.00 0.00 0.00 86 1019.4
20260506115042 12 355 1.6 1.6 0.00 0.00 0.00 86 1019.2
20260506114539 13 334 0.0 0.0 0.00 0.00 0.00 85 1019.3
20260506114037 13 334 0.0 0.0 0.00 0.00 0.00 85 1019.1
20260506113535 13 332 0.0 0.0 0.00 0.00 0.00 85 1019.2
20260506113032 13 350 0.0 0.0 0.00 0.00 0.00 85 1019.2
20260506112528 13 350 0.0 0.0 0.00 0.00 0.00 85 1019.2
20260506112025 13 350 0.0 0.0 0.00 0.00 0.00 86 1019.0
20260506111524 13 357 0.0 0.0 0.00 0.00 0.00 86 1019.1
20260506111020 13 357 0.0 0.0 0.00 0.00 0.00 86 1019.2
20260506110518 13 357 0.0 0.0 0.00 0.00 0.00 85 1019.0
20260506110015 13 0 0.0 1.6 0.00 0.00 0.00 85 1019.1
20260506105511 13 356 1.6 1.6 0.00 0.00 0.00 85 1019.0
20260506105008 13 2 1.6 1.6 0.00 0.00 0.00 85 1019.0
20260506104507 13 5 0.0 0.0 0.00 0.00 0.00 85 1019.1
20260506104004 13 5 0.0 0.0 0.00 0.00 0.00 85 1019.0
20260506103501 13 5 0.0 0.0 0.00 0.00 0.00 85 1019.0
20260506102958 13 5 0.0 0.0 0.00 0.00 0.00 85 1019.2
20260506102456 13 5 0.0 0.0 0.00 0.00 0.00 85 1019.0
20260506101953 13 6 0.0 1.6 0.00 0.00 0.00 85 1019.1
20260506101449 13 6 0.0 1.6 0.00 0.00 0.00 85 1019.1
20260506100947 13 347 0.0 0.0 0.00 0.00 0.00 85 1019.1
20260506100445 13 344 0.0 0.0 0.00 0.00 0.00 85 1018.9
20260506095943 -17 0.0 0.0 0.00 0.00 0.00 1018.9
20260506095441 -17 0.0 0.0 0.00 0.00 0.00 1019.0
20260506094937 13 352 0.0 0.0 0.00 0.00 0.00 85 1018.8
20260506094436 -17 0.0 0.0 0.00 0.00 0.00 1019.0
20260506093933 13 340 0.0 1.6 0.00 0.00 0.00 85 1018.8
20260506093431 13 340 0.0 1.6 0.00 0.00 0.00 85 1019.0
20260506092928 13 0 0.0 0.0 0.00 0.00 0.00 84 1019.2
20260506092426 13 0 0.0 0.0 0.00 0.00 0.00 84 1019.3
20260506091922 13 345 1.6 1.6 0.00 0.00 0.00 84 1019.0
20260506091421 13 4 1.6 3.2 0.00 0.00 0.00 84 1018.9
20260506090917 13 16 1.6 1.6 0.00 0.00 0.00 84 1019.1
20260506090415 13 356 0.0 0.0 0.00 0.00 0.00 84 1019.1
20260506085912 13 356 0.0 0.0 0.00 0.00 0.00 84 1019.0
20260506085408 13 345 0.0 0.0 0.00 0.00 0.00 84 1019.1
20260506084904 13 345 0.0 0.0 0.00 0.00 0.00 84 1019.0
20260506084401 13 351 0.0 0.0 0.00 0.00 0.00 84 1019.0
20260506083858 13 354 0.0 0.0 0.00 0.00 0.00 84 1019.0
20260506083355 13 9 1.6 1.6 0.00 0.00 0.00 84 1019.0
20260506082852 13 12 3.2 3.2 0.00 0.00 0.00 83 1019.0
20260506082349 13 4 1.6 3.2 0.00 0.00 0.00 83 1019.1
20260506081845 13 359 3.2 3.2 0.00 0.00 0.00 83 1019.1
20260506081344 13 4 1.6 1.6 0.00 0.00 0.00 83 1019.1
20260506080841 13 355 0.0 1.6 0.00 0.00 0.00 83 1019.1
20260506080337 13 0 4.8 4.8 0.00 0.00 0.00 83 1019.0
20260506073321 13 14 3.2 3.2 0.00 0.00 0.00 82 1018.8
20260506072818 13 350 0.0 0.0 0.00 0.00 0.00 82 1018.7
20260506072316 13 314 1.6 1.6 0.00 0.00 0.00 82 1018.6
20260506071813 13 1 1.6 1.6 0.00 0.00 0.00 82 1018.7
20260506071311 13 5 1.6 1.6 0.00 0.00 0.00 82 1018.6
20260506070808 13 348 0.0 0.0 0.00 0.00 0.00 82 1018.4
20260506070305 13 359 1.6 1.6 0.00 0.00 0.00 82 1018.7
20260506062242 13 336 0.0 1.6 0.00 0.00 0.00 79 1018.3
20260506061738 13 7 0.0 1.6 0.00 0.00 0.00 79 1018.5
20260506061235 13 357 0.0 0.0 0.00 0.00 0.00 79 1018.3
20260506060734 13 338 1.6 1.6 0.00 0.00 0.00 80 1017.9
20260506060231 14 339 0.0 0.0 0.00 0.00 0.00 81 1018.0
20260506051203 15 339 0.0 0.0 0.00 0.00 0.00 79 1017.8
20260506050701 14 339 0.0 0.0 0.00 0.00 0.00 80 1018.0
20260506050158 14 342 0.0 0.0 0.00 0.00 0.00 80 1017.9
20260506044649 14 340 0.0 0.0 0.00 0.00 0.00 80 1017.7
20260506044145 15 340 0.0 0.0 0.00 0.00 0.00 80 1017.5
20260506043643 14 340 0.0 0.0 0.00 0.00 0.00 79 1017.6
20260506043140 14 336 0.0 0.0 0.00 0.00 0.00 78 1017.5
20260506042639 14 350 0.0 0.0 0.00 0.00 0.00 78 1017.5
20260506042137 15 350 0.0 0.0 0.00 0.00 0.00 77 1017.5
20260506041635 14 350 0.0 0.0 0.00 0.00 0.00 77 1017.4
20260506041132 14 350 0.0 0.0 0.00 0.00 0.00 78 1017.3
20260506040629 14 357 0.0 0.0 0.00 0.00 0.00 77 1017.2
20260506040126 14 357 0.0 0.0 0.00 0.00 0.00 77 1017.1
20260506035623 14 344 0.0 0.0 0.00 0.00 0.00 77 1017.2
20260506035119 14 359 0.0 0.0 0.00 0.00 0.00 77 1017.2
20260506034617 14 328 0.0 0.0 0.00 0.00 0.00 76 1016.9
20260506034114 14 331 0.0 0.0 0.00 0.00 0.00 77 1016.9
20260506033611 14 331 0.0 0.0 0.00 0.00 0.00 76 1016.9
20260506033108 15 331 0.0 0.0 0.00 0.00 0.00 76 1016.7
20260506032605 15 331 0.0 0.0 0.00 0.00 0.00 77 1016.8
20260506032102 15 337 0.0 0.0 0.00 0.00 0.00 77 1016.5
20260506031559 15 340 0.0 0.0 0.00 0.00 0.00 77 1016.7
20260506031056 15 343 0.0 1.6 0.00 0.00 0.00 77 1016.4
20260506030555 15 335 0.0 0.0 0.00 0.00 0.00 77 1016.5